Location: Casone le Fosse
(44.6547°N, 12.1103°E)
Time: 13:32:53
(UTC+00:00)

Daily predictions for brighter satellites

Satellite Brightness Start Highest point End
(mag) Time Altitude Azimuth Time Altitude Azimuth Time Altitude Azimuth
SMAP 3.0 16:24:12 10° SSE 16:28:49 73° ENE 16:33:29 10° N
Cosmos 2219 3.5 16:23:25 10° NNW 16:28:59 48° ENE 16:34:32 10° SE
Cosmos 1331 Rocket 4.0 16:24:28 10° SSW 16:29:38 89° ESE 16:34:49 10° NNE
ATLAS 5 CENTAUR R/B 4.1 16:27:45 10° NW 16:29:39 12° NNW 16:31:41 10° N
USA 215 4.4 16:24:35 10° NE 16:30:08 30° N 16:35:40 10° WNW
FALCON 9 DEB 3.3 16:28:29 10° WSW 16:31:41 61° NNW 16:34:53 10° NE
ATLAS 2AS CENTAUR R/B 4.2 16:26:50 10° NNW 16:32:35 22° NNE 16:38:04 10° ENE
Cosmos 2266 Rocket 4.4 16:26:31 10° NNW 16:32:45 72° W 16:39:04 10° S
FALCON 9 DEB 3.4 16:30:33 10° WSW 16:33:42 55° NNW 16:36:52 10° NE
Lacrosse 5 3.6 16:32:15 10° NW 16:36:01 20° N 16:39:46 10° NE
CSL-04 DEB 4.5 16:32:08 10° NNE 16:36:05 79° WNW 16:40:00 10° SSW
AQUARIUS 4.1 16:32:36 10° SSE 16:37:05 78° ENE 16:41:36 10° N
Cosmos 1953 Rocket 3.6 16:35:29 10° N 16:39:54 64° E 16:44:19 10° SSE
Cosmos 1656 4.0 16:34:54 10° S 16:40:08 45° ESE 16:45:30 10° NE
Cosmos 968 Rocket 4.0 16:38:53 10° N 16:43:45 38° ENE 16:48:32 10° SE
Cosmos 1408 4.1 16:42:09 10° NNE 16:44:36 17° ENE 16:47:03 10° ESE
Cosmos 2058 Rocket 3.4 16:41:29 10° SSE 16:45:47 48° E 16:50:08 10° NNE
NOAA 12 4.3 16:41:41 10° SSE 16:46:59 84° WSW 16:52:21 10° NNW
FALCON 9 DEB 3.7 16:45:14 10° WSW 16:48:23 46° NNW 16:51:32 10° NE
CZ-4B R/B 3.7 16:42:52 10° S 16:48:26 70° WSW 16:53:57 10° NNW
ADEOS Rocket 3.9 16:45:29 10° N 16:51:52 61° WNW 16:58:56 10° SSW
USA 281 3.4 16:45:46 10° SSE 16:52:20 81° WSW 16:58:57 10° NNW
Cosmos 1689 Rocket 3.0 16:51:35 10° NE 16:54:06 26° E 16:56:35 10° SSE
IRS-1C Rocket 4.3 16:50:27 10° SE 16:55:30 50° ENE 17:00:36 10° N
FALCON 9 DEB 4.0 16:54:58 10° W 16:58:01 38° NNW 17:00:47 12° NE
CZ-4C R/B 4.3 16:55:20 10° NNW 16:59:51 19° NNE 17:04:27 11° ENE
Cosmos 2227 Rocket 2.2 16:54:29 10° NNW 17:00:07 63° ENE 17:05:43 10° SE
Cosmos 1939 Rocket 3.0 16:56:53 10° SSE 17:00:41 48° ENE 17:04:28 10° N
Cosmos 1892 3.2 16:57:06 10° N 17:00:47 39° ENE 17:04:26 10° SSE
Cosmos 2263 Rocket 3.9 16:58:27 10° N 17:01:32 15° NE 17:03:25 13° ENE
Cosmos 1302 Rocket 4.0 16:56:58 10° SSW 17:02:14 89° ESE 17:07:34 10° NNE
H-2A R/B 4.0 17:02:44 10° N 17:06:21 30° WNW 17:09:55 10° SW
USA 307 3.3 17:03:16 10° NW 17:07:25 45° NNE 17:10:17 18° E
COSMO-SKYMED 1 2.6 17:04:08 10° NNE 17:08:24 55° E 17:12:40 10° S
Cosmos 1300 3.7 17:06:19 10° SSW 17:10:01 50° WNW 17:13:45 10° N
SAR-Lupe-4 3.4 17:06:29 10° NNE 17:10:05 75° ESE 17:13:39 10° S
Cosmos 1400 Rocket 2.9 17:07:32 10° S 17:11:39 85° W 17:15:45 10° N
USA 308 3.3 17:08:14 10° NW 17:12:23 48° NNE 17:15:04 20° E
Cosmos 1697 Rocket 3.0 17:07:58 10° S 17:13:16 45° ESE 17:18:35 10° NE
Cosmos 1486 Rocket 4.0 17:08:10 10° NNW 17:13:32 69° ENE 17:18:48 10° SSE
CZ-4B R/B 2.2 17:10:56 10° N 17:14:02 49° WNW 17:17:03 10° SSW
Cosmos 1825 3.2 17:13:13 10° NNE 17:16:24 25° ENE 17:17:29 22° E
ERS-2 3.3 17:14:18 10° N 17:17:48 45° WNW 17:21:17 10° SW
Helios 1A Rocket 3.0 17:14:00 10° SSE 17:17:59 52° ENE 17:21:59 10° N
Meteor 2-8 Rocket 4.4 17:13:41 10° S 17:19:47 88° E 17:25:59 10° N
YAOGAN 1 3.0 17:16:22 10° SE 17:20:22 39° ENE 17:24:25 10° N
S3M 4.0 17:15:06 10° SSE 17:21:00 53° E 17:26:59 10° NNE
CZ-4 R/B 4.4 17:17:15 10° SSE 17:21:22 66° ENE 17:25:31 10° N
BREEZE-M TANK 3.0 17:14:34 10° W 17:22:54 87° N 17:24:59 25° E
Cosmos 1503 Rocket 4.2 17:18:37 10° N 17:23:42 49° ENE 17:28:48 10° SE
Atlas Centaur 2 4.3 17:17:06 10° SW 17:23:53 29° S 17:30:05 13° ESE
CZ-2D R/B 3.1 17:22:16 10° SSE 17:26:02 69° ENE 17:29:50 10° N
Cosmos 1812 Rocket 4.0 17:22:33 10° SSE 17:26:35 36° E 17:30:36 10° NNE
Meteor 2-1 Rocket 4.2 17:21:39 10° S 17:26:59 54° E 17:32:22 10° NNE
Okean O Rocket 3.8 17:23:39 10° SSW 17:27:25 28° W 17:31:11 10° NW
Cosmos 1340 3.2 17:23:52 10° NNW 17:27:36 60° W 17:31:19 10° S
SAR-Lupe-1 4.3 17:24:20 10° N 17:27:54 70° WNW 17:31:25 10° SSW
CZ-4 R/B 1.3 17:25:03 10° SSE 17:28:51 54° ENE 17:32:37 10° N
Cosmos 1417 Rocket 4.4 17:24:57 10° S 17:31:12 79° E 17:37:34 10° N
Aureole 3 4.3 17:32:06 10° SSW 17:34:58 36° WNW 17:37:46 10° N
Cosmos 1346 Rocket 2.6 17:31:29 10° N 17:35:29 77° E 17:39:28 10° SSE
SL-4 R/B 2.5 17:32:23 10° NW 17:35:45 37° NNE 17:36:33 32° NE
Cosmos 2058 2.7 17:32:09 10° N 17:36:16 73° E 17:40:21 10° SSE
Cosmos 1354 Rocket 4.1 17:31:22 10° NNW 17:36:32 55° ENE 17:41:00 14° SE
Cosmos 1980 Rocket 2.7 17:31:49 10° S 17:36:56 37° ESE 17:39:22 25° ENE
Cosmos 1992 Rocket 3.9 17:33:34 10° SSW 17:38:46 77° ESE 17:43:59 10° NNE
Cosmos 2151 4.4 17:35:36 10° NNE 17:37:30 20° NE 17:37:30 20° NE
Cosmos 2297 Rocket 2.9 17:34:03 10° NNW 17:39:35 55° WSW 17:45:03 10° S
PSLV R/B 4.0 17:36:17 10° NNE 17:40:29 82° WNW 17:44:35 10° SSW
Meteor 2-15 Rocket 4.4 17:35:27 10° S 17:41:32 69° E 17:47:39 10° NNE
CZ-2C R/B 3.2 17:36:44 10° SSE 17:42:29 68° ENE 17:48:03 10° N
Timation 1 Rocket 4.5 17:36:54 10° NNW 17:42:47 53° ENE 17:46:16 24° SE
CSL-04 Debris 4.3 17:37:47 10° SE 17:43:03 52° ENE 17:48:21 10° N
Cosmos 1315 Rocket 2.6 17:41:28 10° S 17:45:25 79° E 17:49:26 10° NNE
NOAA 15 4.5 17:43:16 10° SSE 17:48:35 80° ENE 17:53:55 10° NNW
Cosmos 1553 Rocket 4.3 17:43:04 10° SSW 17:49:23 69° W 17:55:39 10° N
CRYOSAT 2 4.2 17:46:03 10° N 17:50:54 64° E 17:55:43 10° S
Cosmos 220 Rocket 4.3 17:47:03 10° SSW 17:51:23 70° WNW 17:55:49 10° NNE
Geosat 4.1 17:52:53 35° ENE 17:54:40 51° ESE 17:59:32 10° S
Meteor 2-10 Rocket 3.6 17:49:59 10° SSW 17:55:17 75° WNW 18:00:25 10° N
BREEZE-M R/B 3.9 17:51:55 10° WNW 17:56:05 64° NNE 17:59:00 35° E
Cosmos 1455 2.3 17:53:30 10° SSW 17:57:16 74° W 18:01:06 10° N
USA 305 2.8 17:52:58 10° NW 17:57:17 89° SW 17:58:11 56° SE
Cosmos 2360 4.1 17:54:22 10° SSW 18:00:06 81° ESE 18:04:36 17° NNE
SeaSat 1 3.1 18:00:38 36° NE 18:00:38 36° NE 18:04:52 10° NNW
H-2A R/B 2.0 17:57:33 10° SSE 18:02:57 73° ENE 18:08:24 10° N
NOSS 3-4 (A) 4.0 17:56:33 10° NNW 18:03:17 51° NE 18:05:39 38° E
NOSS 3-4 (C) 4.0 17:56:39 10° NNW 18:03:23 50° NE 18:05:43 38° E
USA 306 2.8 17:59:30 10° NW 18:03:47 81° SW 18:04:25 63° SE
Okean-O 3.2 18:00:06 10° S 18:04:27 57° W 18:08:50 10° NNW
MOS 1 Rocket 3.2 18:04:20 10° NNE 18:09:06 80° ESE 18:14:09 10° S
Cosmos 2278 3.6 18:04:42 10° SSW 18:10:21 72° ESE 18:12:45 35° NE
NOSS 3-3 (A) 4.1 18:05:50 10° SW 18:11:39 70° NW 18:16:10 21° NNE
NOSS 3-3 (C) 4.1 18:05:56 10° SW 18:11:45 71° NW 18:16:14 21° NNE
USA 215 4.1 18:10:10 30° NE 18:12:05 36° NNE 18:17:54 10° NW
GEOS 3 Rocket 3.6 18:17:20 60° E 18:17:54 65° NE 18:23:15 10° NNW
ARGOS 3.0 18:17:21 49° SE 18:18:48 74° ENE 18:24:14 10° N
Cosmos 44 Rocket 3.2 18:14:18 10° SW 18:19:04 80° NW 18:19:57 59° NNE
Cosmos 1408 4.4 18:16:24 10° NNW 18:19:42 32° W 18:23:00 10° SSW
Lacrosse 5 3.2 18:16:11 10° NW 18:20:11 26° NNE 18:20:11 26° NNE
Cosmos 2082 4.3 18:14:51 10° NNW 18:20:27 57° WSW 18:25:52 11° S
Meteor 2-3 Rocket 4.2 18:15:15 10° N 18:19:36 43° NE 18:19:36 43° NE
ATLAS 2AS CENTAUR R/B 2.9 18:18:01 10° NNW 18:25:24 54° NE 18:26:17 51° ENE
Cosmos 2369 4.4 18:29:24 10° SW 18:34:58 51° WNW 18:39:11 17° NNE
Cosmos 967 Rocket 4.4 18:30:27 10° SSW 18:36:34 69° SE 18:36:34 69° SE
Cosmos 1777 Rocket 4.4 18:34:39 10° NNW 18:38:35 52° N 18:38:35 52° N
CSL-04 Rocket 4.3 18:34:49 10° S 18:40:16 57° W 18:45:42 10° NNW
Cosmos 1709 Rocket 4.5 18:39:55 10° NNW 18:46:11 60° W 18:52:25 10° S
Cosmos 2263 Rocket 2.7 18:40:51 10° NNW 18:45:07 49° N 18:45:07 49° N
USA 307 4.4 18:43:26 10° WNW 18:46:28 34° WSW 18:46:28 34° WSW
CZ-4C R/B 3.4 18:43:30 10° NNW 18:49:38 44° NNE 18:49:38 44° NNE
Cosmos 1697 Rocket 4.3 18:52:26 10° WSW 18:57:23 31° NW 19:01:26 14° N
Atlas Centaur 2 4.3 19:05:50 10° WSW 19:12:39 27° S 19:12:40 27° S
Cosmos 1980 Rocket 3.5 19:15:44 10° WSW 19:20:55 36° NW 19:21:13 36° NW
USA 215 4.5 19:57:31 35° NW 19:57:31 35° NW 20:01:03 10° NW
ATLAS 2AS CENTAUR R/B 4.3 20:09:29 10° NW 20:13:44 30° WNW 20:13:44 30° WNW
